Starlink 32635

operational
NORAD ID: 62155 Int'l Des: 2024-224 Owner: SPXS Country: US Constellation: starlink
LEOCIRCULAR

Starlink 32635について

説明を読み込み中...

リアルタイム位置

3D地球を読み込み中...

次回通過

高度履歴

Altitude vs Time

uPlot chart will show altitude changes over time

軌道要素

1 62155U 24224S 26036.85481661 .00043876 00000-0 15914-2 0 9999
2 62155 43.0001 345.4666 0000975 239.8772 120.1983 15.27644126 67366
Epoch: Feb 5, 2026 • Age: 4 hours

現在のステータス

高度 492.9 km
速度 7.62 km/s
衛星直下点 -36.18°S, 142.52°E
打ち上げ日 Nov 30, 2024
運用期間 1.1 years
タイプ internet

技術仕様

分類 Payload
質量 730.00 kg
乾燥質量 700.00 kg
総質量 730.00 kg
長さ 0.30 m
直径 4.10 m
スパン 29.00 m
形状 Box + pan
製造者 SPXS
バスタイプ Starlink V2M
フェーズステータス In Orbit
所有者/国 SPXS/US

大規模コンステレーション

Loading constellations...